Location: Dal�� Lhota
(48.7500°N, 14.0167°E)
Time: 22:18:04
(UTC+00:00)

Vanguard 3 - Pass Details

Date: 08 August 2021
Orbit: 510 x 3260 km, 33.3° (Epoch: 19 September)

Event Time Altitude Azimuth Distance (km) Brightness Sun altitude
Rises 20:22:16 0° 271° (W) 6,197 12.3 -15.5°
Reaches altitude 10° 20:26:48 10° 262° (W) 5,518 11.8 -16.0°
Maximum altitude 20:40:28 29° 211° (SSW) 4,694 10.8 -17.4°
Enters shadow 20:52:01 16° 169° (S) 5,593 10.8 -18.5°
Drops below altitude 10° 20:55:35 10° 161° (SSE) 6,065 - -18.9°
Sets 21:01:01 0° 151° (SSE) 6,880 - -19.3°
